Temp
11 11 11 11 11 11 12 12 12 12 11 11 12 11 11 11 11 12 12 13 12 12 12 12 12 13 14 14 16 18 18 18 18 18 19 20 21 22 23 25 26 26 27 26 26 27 26
11 11 11 11 11 11 11 11 11 11 11 11 11 11 11 11 11 11 11 12 11 11 11 11 11 11 11 13 18 18 18 17 17 18 19 20 21 21 21 22 24 25 26 25 25 26 26
10 11 11 11 10 11 11 10 11 11 11 10 10 10 10 10 11 11 11 11 11 10 10 11 11 10 9 13 17 18 17 17 17 17 19 19 20 20 21 22 23 24 23 24 25 25 25
10 11 10 11 11 10 10 10 10 10 10 10 10 10 10 10 10 10 10 10 10 10 10 10 10 9 9 16 16 16 16 17 17 17 17 18 18 19 19 20 22 22 23 22 25 27 27
10 10 11 11 10 10 10 10 9 9 9 9 9 9 9 9 9 9 9 9 10 10 9 9 9 9 11 15 14 16 15 16 17 18 18 18 18 18 19 20 20 22 21 23 25 28 27
11 10 10 10 11 10 10 10 9 8 9 8 8 9 9 9 9 8 9 9 9 9 9 8 9 9 11 15 17 17 17 17 18 18 18 17 18 19 20 19 20 22 24 25 25 27 26
9 9 10 10 10 10 9 9 9 8 9 8 8 9 8 8 8 8 8 9 9 9 7 11 13 13 17 16 17 17 18 17 18 18 18 19 18 18 20 22 23 23 23 24 25 26 25
10 9 10 9 10 9 9 9 9 8 8 8 8 9 9 8 8 8 8 9 9 8 9 11 12 13 14 16 16 17 18 18 18 18 20 19 18 21 23 23 24 24 23 23 24 25 25
10 10 10 9 10 9 9 9 9 9 9 8 8 8 8 8 8 8 8 8 8 8 8 11 13 14 14 15 16 17 18 18 19 18 19 19 21 22 22 22 22 23 22 21 22 24 24
8 8 8 9 9 9 8 8 8 8 8 8 8 8 8 8 7 7 6 7 7 7 8 15 16 16 16 16 16 16 17 18 19 18 20 20 22 22 22 22 22 21 23 23 22 22 21
7 8 8 8 8 8 8 8 7 7 8 7 8 8 8 7 7 6 6 6 6 7 11 19 17 15 16 16 17 17 16 16 17 18 19 18 20 21 20 21 22 21 23 22 22 20 20
4 5 6 6 7 7 7 8 8 7 7 7 7 7 6 6 6 6 6 7 7 8 11 17 17 15 16 16 17 17 16 17 17 18 19 19 20 21 21 21 21 22 21 21 21 19 17
3 4 3 4 4 5 5 5 5 6 6 6 5 5 5 5 6 6 6 6 6 9 18 16 17 17 16 16 16 18 17 16 16 15 16 17 18 20 21 20 20 20 19 17 17 17 17
2 2 2 2 3 3 3 4 5 4 4 5 5 5 5 5 5 5 6 5 7 13 16 17 18 18 17 18 18 18 17 17 17 18 18 18 18 20 21 20 19 19 19 17 16 17 19
2 1 2 2 2 2 2 2 3 4 4 5 4 5 5 5 5 5 5 5 9 13 16 11 13 15 17 18 18 19 18 18 19 19 17 18 19 20 20 21 20 18 18 20 17 18 15
1 1 1 2 2 2 2 3 4 4 5 5 5 4 4 4 5 4 4 6 10 14 15 14 11 15 15 17 16 17 18 17 19 20 19 18 16 19 19 19 19 18 20 16 14 12 15
1 1 1 1 1 1 1 2 3 4 4 4 4 3 3 3 3 4 4 6 9 11 12 12 13 13 15 15 16 15 16 16 17 17 17 17 16 16 18 17 17 18 17 17 17 12 12
-0 0 0 0 1 1 1 1 1 2 3 2 2 1 2 2 2 0 4 8 10 12 11 11 11 11 12 13 14 14 15 13 13 14 14 13 14 14 16 18 17 17 16 17 14 14 14
-1 -1 -0 -0 0 0 1 1 1 1 1 1 0 -0 0 1 3 3 4 6 8 9 11 11 11 12 13 12 12 12 13 12 11 12 12 13 12 11 13 15 16 12 11 12 11 14 13
-1 -1 -1 -0 -0 -0 -0 0 1 1 1 1 -0 1 -0 -0 -0 1 4 5 6 7 9 10 11 12 12 12 13 12 13 14 11 12 9 11 11 11 11 9 7 7 7 9 7 7 9
-1 -2 -1 -1 -1 -0 0 0 0 1 1 1 1 1 2 2 1 1 2 3 4 4 3 6 6 9 10 10 11 12 13 14 12 10 11 11 11 12 12 12 8 8 8 8 8 8 7
-2 -2 -2 -1 -1 -1 -1 -1 0 0 0 1 1 2 2 1 2 2 1 2 3 3 2 3 3 3 4 5 8 9 8 11 10 11 11 11 10 11 11 12 12 9 11 11 11 11 10
-2 -3 -3 -2 -2 -1 -1 -1 -1 -0 0 0 1 1 1 2 2 2 3 4 4 5 3 4 2 3 4 3 2 3 4 7 8 8 9 9 9 9 9 11 11 10 11 12 12 13 12
-3 -3 -3 -3 -2 -2 -2 -1 -1 -1 -0 -0 1 1 1 2 3 3 4 4 4 3 3 4 4 4 4 3 4 5 6 6 8 10 11 9 9 9 8 10 7 11 14 13 13 14 15
-3 -3 -3 -3 -3 -2 -2 -2 -1 -1 -1 -0 1 1 1 2 4 5 6 4 4 4 3 4 4 5 2 3 3 5 7 7 6 9 10 11 10 9 8 8 10 12 13 13 13 12 14
-2 -3 -3 -3 -3 -3 -2 -2 -2 -1 -1 -0 -0 1 1 1 3 4 5 5 5 5 4 3 4 3 3 3 2 3 4 7 8 9 11 10 10 9 7 7 7 10 13 14 15 7 11
-3 -3 -3 -3 -3 -3 -3 -3 -3 -2 -2 -1 -1 -0 1 0 1 2 4 4 5 5 4 5 5 3 3 2 2 2 3 6 5 5 8 8 8 7 7 7 9 13 14 14 10 11 14
-3 -3 -3 -3 -3 -3 -3 -3 -3 -3 -2 -2 -1 -1 -1 -0 1 1 2 3 3 4 4 5 4 4 2 1 2 3 4 6 6 7 7 8 6 7 8 7 7 12 13 9 9 12 12
-3 -2 -3 -3 -3 -3 -3 -2 -3 -3 -3 -2 -2 -1 -1 -1 -0 0 -0 1 1 2 3 3 4 4 4 3 3 3 3 3 4 4 9 6 8 6 8 9 11 12 12 13 12 12 12
Height
1482 1484 1488 1491 1493 1496 1498 1501 1503 1505 1509 1510 1510 1512 1513 1514 1515 1515 1515 1514 1515 1514 1513 1511 1510 1508 1506 1506 1494 1496 1493 1494 1494 1493 1493 1493 1492 1487 1481 1475 1471 1466 1464 1465 1463 1460 1463
1475 1480 1482 1485 1488 1490 1493 1496 1498 1500 1504 1506 1506 1508 1510 1510 1512 1512 1512 1510 1512 1511 1511 1509 1508 1507 1508 1502 1491 1492 1492 1492 1493 1493 1491 1491 1489 1486 1483 1479 1476 1470 1465 1463 1461 1459 1459
1469 1472 1476 1478 1481 1485 1488 1489 1492 1495 1499 1501 1502 1504 1506 1506 1507 1509 1509 1508 1508 1508 1509 1507 1506 1504 1501 1489 1488 1487 1487 1489 1490 1490 1488 1490 1489 1485 1481 1477 1473 1470 1468 1463 1458 1455 1455
1463 1466 1470 1472 1475 1479 1481 1483 1487 1490 1493 1496 1498 1500 1501 1503 1504 1505 1505 1506 1505 1504 1505 1504 1502 1501 1490 1482 1483 1481 1483 1483 1484 1484 1484 1486 1487 1484 1482 1478 1473 1471 1466 1466 1449 1442 1440
1457 1460 1464 1467 1470 1472 1475 1478 1481 1484 1487 1491 1493 1495 1498 1499 1500 1500 1501 1504 1501 1501 1500 1500 1499 1498 1484 1477 1475 1473 1476 1476 1480 1479 1480 1482 1484 1482 1479 1476 1474 1466 1469 1456 1443 1430 1435
1449 1454 1457 1461 1464 1468 1469 1472 1475 1479 1481 1485 1489 1491 1493 1494 1497 1496 1498 1499 1499 1497 1496 1496 1494 1501 1481 1473 1472 1473 1473 1474 1476 1477 1479 1478 1478 1475 1467 1471 1473 1459 1450 1442 1440 1429 1434
1443 1446 1450 1453 1456 1461 1464 1466 1470 1472 1476 1477 1483 1486 1488 1489 1491 1493 1496 1498 1499 1494 1488 1483 1477 1471 1468 1467 1468 1470 1470 1472 1474 1474 1474 1470 1473 1467 1457 1452 1451 1449 1447 1445 1435 1429 1432
1436 1439 1442 1446 1450 1454 1457 1461 1464 1467 1471 1474 1478 1479 1482 1484 1487 1489 1490 1491 1494 1492 1481 1474 1470 1467 1466 1466 1467 1466 1468 1470 1469 1467 1466 1466 1462 1455 1449 1443 1440 1438 1444 1446 1438 1434 1435
1427 1432 1435 1440 1443 1447 1451 1454 1458 1461 1466 1469 1473 1474 1476 1479 1481 1482 1483 1486 1487 1486 1483 1463 1460 1453 1459 1464 1456 1460 1463 1463 1461 1461 1456 1454 1446 1446 1445 1443 1443 1439 1444 1447 1445 1435 1429
1421 1424 1429 1431 1435 1440 1445 1448 1451 1454 1459 1466 1467 1469 1471 1475 1480 1476 1476 1479 1482 1485 1481 1444 1440 1437 1448 1453 1448 1450 1453 1457 1456 1455 1449 1443 1444 1441 1438 1436 1439 1445 1439 1435 1437 1439 1442
1418 1420 1422 1425 1430 1434 1439 1443 1447 1449 1452 1457 1461 1465 1468 1470 1473 1476 1476 1479 1481 1485 1473 1426 1434 1440 1440 1442 1441 1440 1446 1449 1447 1448 1453 1441 1443 1438 1439 1436 1433 1435 1437 1438 1436 1441 1441
1416 1418 1420 1421 1424 1430 1433 1436 1439 1445 1447 1451 1455 1458 1462 1466 1469 1472 1473 1476 1482 1485 1462 1426 1434 1438 1439 1439 1440 1439 1442 1442 1447 1447 1442 1439 1440 1434 1431 1432 1434 1433 1437 1438 1438 1447 1450
1414 1420 1422 1422 1423 1428 1434 1435 1439 1439 1445 1448 1451 1455 1459 1462 1465 1469 1471 1475 1482 1469 1424 1427 1426 1430 1430 1432 1437 1435 1439 1442 1443 1451 1447 1439 1436 1432 1431 1434 1434 1436 1442 1455 1455 1456 1440
1410 1418 1422 1426 1423 1427 1429 1434 1439 1439 1444 1447 1450 1454 1456 1459 1462 1466 1471 1476 1469 1440 1425 1424 1421 1423 1428 1424 1426 1428 1433 1435 1438 1435 1429 1427 1428 1419 1418 1422 1431 1432 1440 1450 1457 1445 1426
1415 1417 1421 1422 1426 1427 1428 1435 1437 1439 1440 1445 1448 1450 1453 1456 1459 1464 1468 1469 1451 1435 1427 1444 1438 1430 1422 1422 1423 1421 1426 1428 1423 1424 1436 1425 1418 1415 1417 1411 1420 1432 1437 1431 1438 1431 1446
1416 1420 1421 1422 1429 1427 1429 1434 1438 1439 1439 1441 1442 1446 1449 1453 1456 1461 1462 1453 1441 1431 1431 1436 1442 1428 1426 1422 1426 1425 1422 1424 1420 1419 1422 1425 1431 1418 1419 1424 1426 1428 1427 1441 1446 1464 1447
1417 1420 1423 1424 1431 1425 1430 1431 1435 1436 1436 1439 1438 1442 1445 1448 1452 1454 1451 1445 1439 1436 1439 1440 1434 1431 1426 1426 1424 1428 1424 1427 1427 1428 1430 1429 1432 1426 1420 1427 1433 1429 1435 1434 1433 1453 1454
1418 1418 1422 1424 1426 1428 1430 1429 1434 1438 1435 1437 1437 1441 1443 1445 1452 1448 1441 1436 1436 1432 1437 1439 1440 1438 1432 1428 1429 1427 1427 1435 1438 1436 1437 1439 1436 1436 1431 1423 1427 1431 1431 1428 1441 1441 1436
1416 1418 1421 1423 1424 1428 1428 1430 1436 1435 1435 1437 1437 1439 1443 1442 1443 1444 1440 1439 1436 1435 1432 1432 1434 1433 1431 1431 1435 1432 1431 1436 1439 1441 1441 1437 1441 1447 1439 1434 1428 1444 1448 1445 1445 1437 1439
1417 1419 1419 1421 1425 1427 1429 1432 1433 1434 1436 1437 1440 1442 1444 1442 1442 1445 1439 1436 1436 1437 1435 1429 1429 1430 1429 1427 1426 1427 1427 1430 1438 1438 1442 1443 1441 1443 1445 1451 1459 1462 1462 1457 1461 1464 1454
1418 1419 1419 1421 1423 1425 1427 1428 1429 1432 1436 1438 1440 1441 1440 1439 1439 1444 1443 1441 1437 1439 1439 1434 1437 1433 1428 1429 1429 1424 1423 1425 1433 1438 1440 1439 1438 1435 1434 1436 1449 1450 1452 1453 1457 1455 1461
1419 1418 1419 1421 1424 1425 1426 1428 1429 1431 1434 1438 1441 1440 1437 1440 1437 1441 1442 1443 1437 1440 1442 1444 1444 1444 1440 1439 1435 1428 1434 1426 1431 1433 1434 1435 1436 1433 1432 1429 1431 1442 1439 1433 1438 1438 1441
1416 1418 1419 1421 1422 1423 1424 1427 1428 1431 1435 1435 1435 1437 1441 1437 1433 1435 1438 1439 1437 1439 1443 1442 1445 1447 1441 1441 1445 1443 1441 1438 1436 1435 1434 1434 1434 1433 1430 1427 1426 1432 1422 1423 1422 1422 1424
1413 1415 1418 1420 1421 1422 1424 1426 1427 1430 1432 1435 1437 1440 1440 1431 1432 1434 1434 1435 1438 1439 1442 1442 1442 1445 1443 1443 1444 1438 1435 1433 1427 1425 1423 1425 1428 1430 1428 1426 1433 1411 1410 1412 1414 1409 1409
1410 1412 1414 1417 1418 1420 1421 1423 1425 1428 1431 1433 1436 1437 1436 1435 1433 1429 1427 1431 1434 1434 1438 1438 1438 1441 1443 1445 1441 1429 1423 1424 1421 1417 1416 1417 1419 1421 1424 1419 1412 1406 1398 1402 1403 1407 1404
1404 1407 1411 1413 1415 1417 1419 1421 1423 1426 1430 1432 1434 1436 1438 1438 1433 1432 1428 1427 1425 1427 1431 1432 1435 1436 1443 1445 1446 1436 1425 1410 1404 1402 1404 1409 1409 1415 1423 1416 1411 1395 1393 1395 1395 1419 1403
1399 1402 1405 1408 1411 1414 1416 1419 1421 1424 1427 1430 1433 1435 1436 1436 1433 1431 1427 1427 1428 1429 1428 1428 1430 1433 1438 1441 1439 1438 1430 1418 1414 1409 1398 1399 1403 1406 1409 1406 1396 1385 1384 1387 1401 1395 1390
1392 1394 1398 1401 1405 1408 1412 1415 1418 1421 1424 1428 1431 1432 1435 1434 1431 1430 1429 1430 1430 1430 1428 1427 1429 1427 1435 1439 1436 1427 1419 1411 1406 1400 1400 1393 1401 1394 1394 1400 1399 1376 1386 1396 1393 1389 1391
1383 1385 1389 1393 1398 1403 1407 1412 1416 1419 1423 1426 1429 1430 1432 1432 1430 1428 1428 1427 1429 1429 1428 1425 1424 1424 1425 1426 1424 1420 1418 1413 1405 1400 1388 1394 1387 1392 1383 1376 1375 1375 1378 1377 1378 1380 1385
Wind_Speed
30 29 29 30 30 30 30 30 29 29 29 28 27 26 25 24 23 22 22 22 21 20 20 21 21 22 23 10 22 20 20 17 12 8 11 12 15 16 15 15 19 16 16 21 25 17 17
35 33 33 31 30 30 30 30 30 30 30 30 28 27 26 25 23 23 23 21 22 20 20 19 20 21 14 22 7 9 14 11 12 13 14 13 13 15 13 18 18 21 23 19 20 21 19
31 31 29 33 33 31 31 30 30 30 30 30 29 28 27 25 24 23 23 23 22 21 20 19 20 21 17 34 14 14 16 19 19 17 17 16 14 11 11 15 14 18 15 18 21 24 22
35 33 33 32 31 35 32 30 30 30 30 30 29 28 27 25 24 23 23 23 22 22 22 20 20 21 18 35 31 29 23 25 22 21 20 20 19 16 18 16 23 18 18 17 18 22 24
37 37 35 33 32 33 30 33 32 31 29 28 27 26 25 24 23 23 23 25 23 24 24 23 21 14 19 15 19 20 19 25 20 20 19 17 14 19 16 16 14 14 15 20 21 17 12
37 37 37 37 31 29 30 35 35 32 29 28 26 25 25 24 25 24 23 23 24 26 27 23 18 11 25 18 18 11 11 12 14 10 11 15 12 11 13 15 15 16 20 19 17 12 14
36 39 38 37 32 28 29 17 23 30 28 29 29 26 25 25 24 25 23 24 19 12 16 19 14 14 7 7 10 15 13 12 14 16 15 17 11 17 22 20 21 20 20 22 18 18 17
38 37 33 36 36 33 30 23 18 15 17 30 30 29 26 25 26 25 22 21 14 7 14 23 30 33 30 28 16 14 12 15 19 20 19 17 20 21 21 21 21 19 16 18 18 18 18
30 34 37 35 36 36 33 27 25 22 22 19 23 24 22 22 27 29 31 31 19 11 8 20 35 42 34 30 36 29 22 23 19 19 20 22 17 25 22 20 20 20 17 18 21 20 22
21 26 29 34 33 33 35 33 31 29 27 22 24 23 22 20 16 13 13 18 9 3 5 10 19 22 33 28 27 24 37 31 23 25 22 23 22 24 23 18 14 20 17 20 21 17 14
19 20 26 29 28 27 29 32 32 31 31 28 30 25 22 19 10 10 10 10 11 5 4 6 11 3 7 21 1 10 22 33 30 25 19 24 19 19 25 26 21 23 20 18 20 14 18
2 8 15 21 21 21 27 33 34 34 32 31 29 26 22 20 15 16 14 10 9 2 9 7 9 9 10 20 18 0 4 21 26 22 21 27 29 22 15 14 15 17 19 18 14 11 16
11 3 5 4 13 17 11 14 12 17 21 20 19 16 16 16 13 11 8 10 2 5 7 9 9 12 15 14 16 14 8 11 12 14 20 25 29 27 25 20 14 14 10 9 9 10 13
9 5 8 8 7 3 4 8 12 9 12 13 13 13 14 17 14 12 12 2 7 9 13 7 1 10 12 12 12 14 13 12 19 18 14 12 11 26 20 27 19 16 15 9 10 11 15
5 7 3 3 5 4 7 5 3 10 15 22 19 21 23 23 20 18 17 4 7 9 5 5 12 10 12 11 7 10 15 15 16 19 15 9 12 3 8 6 18 17 17 17 20 16 9
6 4 6 7 8 10 9 6 14 17 20 24 27 23 14 24 21 22 4 7 10 13 9 3 6 8 7 12 12 14 12 8 11 15 4 7 11 11 5 4 8 12 12 5 1 4 9
7 8 8 7 10 6 6 7 12 8 9 23 28 10 11 15 21 15 5 10 12 21 9 9 12 14 13 15 11 12 10 1 4 10 3 6 8 11 6 6 8 10 12 13 9 6 3
6 7 8 8 7 9 9 6 5 6 9 4 10 3 10 20 6 3 8 8 10 15 18 8 4 9 9 9 11 12 13 3 6 8 8 3 4 10 15 16 8 14 12 10 9 17 7
5 6 6 6 8 8 7 9 9 5 4 4 1 3 5 24 3 3 6 9 10 7 16 13 11 13 14 12 8 10 10 8 6 2 5 3 1 5 9 13 2 5 8 8 11 6 12
3 4 5 6 9 9 9 10 10 9 9 1 4 0 1 5 3 3 6 4 10 9 16 16 17 15 18 17 18 16 18 9 8 10 5 2 5 7 11 1 3 3 4 5 5 3 6
4 5 4 4 5 8 11 10 9 11 12 10 3 5 6 1 2 5 4 1 1 3 9 5 4 16 16 18 18 19 20 19 14 12 8 6 13 14 15 16 12 9 10 14 12 12 7
4 4 5 6 7 7 7 9 12 12 13 14 3 3 4 1 9 7 2 1 2 3 4 5 5 10 10 9 12 10 10 14 12 16 15 13 10 13 17 17 17 16 19 20 19 21 19
7 6 6 7 7 8 9 9 9 11 15 9 7 11 7 4 3 6 6 8 8 7 5 6 2 6 8 7 14 14 16 15 13 13 14 12 11 14 16 15 17 15 24 20 21 21 20
12 11 12 12 9 8 9 11 11 12 18 6 8 6 5 4 7 8 10 17 13 11 10 11 12 6 5 15 20 17 18 20 19 17 17 14 17 12 10 12 15 18 17 21 24 21 16
17 17 17 15 13 13 11 11 12 14 19 8 5 6 2 4 10 11 12 12 13 11 11 13 14 12 4 9 7 8 8 13 17 21 18 17 16 11 11 12 16 15 18 17 11 13 15
20 22 21 20 19 16 15 14 14 15 18 17 5 8 3 3 6 14 10 10 8 8 10 12 14 11 8 2 3 4 5 7 7 9 23 21 18 15 9 10 17 18 22 26 12 5 22
23 23 24 25 25 24 21 20 16 16 16 19 7 10 10 7 14 11 5 5 8 8 6 9 7 10 10 3 8 9 8 12 6 8 11 18 19 17 15 15 13 17 15 7 9 9 7
29 26 26 25 23 21 19 17 18 18 16 18 12 13 13 7 16 11 9 10 11 11 6 8 5 6 7 6 4 7 9 12 15 21 21 17 8 16 18 14 20 24 20 12 16 10 7
24 29 31 29 28 27 24 22 19 17 18 17 14 11 11 12 10 10 13 16 16 18 17 16 12 15 7 4 5 4 6 4 12 12 19 18 17 6 10 12 10 11 20 23 22 21 14
Wind_Direction
238 239 242 243 243 243 243 243 245 247 250 251 251 255 257 260 263 266 270 275 284 288 296 303 308 312 318 305 263 284 290 294 284 305 287 292 290 290 281 282 284 273 274 269 275 268 273
241 244 243 243 243 244 244 245 246 248 251 253 253 254 256 259 263 266 270 272 278 284 290 299 306 308 315 281 285 260 289 271 276 285 278 271 271 295 302 275 274 283 286 291 286 281 260
252 249 251 251 243 244 244 245 247 248 250 252 254 254 256 257 258 263 268 272 275 280 285 292 298 306 286 256 249 241 251 265 272 265 266 269 277 263 285 300 286 287 285 274 264 256 249
252 255 251 252 247 243 243 245 248 249 250 251 252 254 255 257 259 261 266 271 275 281 285 288 289 297 269 280 280 268 263 263 257 255 257 263 265 265 263 270 283 279 266 270 268 252 230
251 249 248 248 249 251 250 250 246 247 247 250 251 252 255 256 257 259 263 271 275 281 284 290 291 292 280 297 260 269 255 253 251 257 249 245 249 250 262 251 261 244 255 257 266 251 215
243 245 243 246 241 248 253 259 249 243 245 246 248 250 252 254 257 260 264 274 283 286 286 285 273 277 248 253 265 248 240 234 222 230 226 223 227 243 224 237 239 250 244 235 246 269 203
238 241 238 238 236 245 242 244 251 244 243 237 241 247 253 251 254 256 259 266 284 275 229 221 215 220 252 258 296 230 221 219 230 231 225 205 216 228 231 226 237 258 272 285 289 298 304
246 241 242 240 234 237 246 251 259 230 255 248 243 241 248 255 256 254 254 246 256 274 290 248 250 252 252 262 270 239 220 217 219 228 227 239 228 241 245 246 252 253 268 271 276 273 275
243 244 241 241 238 233 240 238 241 237 255 268 254 241 242 251 254 254 249 248 241 254 268 262 246 246 242 242 250 239 236 221 237 226 234 231 239 225 239 256 260 253 247 264 275 285 286
239 230 229 233 233 233 235 229 223 231 239 238 235 227 232 244 243 235 229 219 217 211 275 267 219 252 233 225 256 242 233 239 232 246 244 247 253 265 265 251 255 265 263 260 258 268 267
194 197 204 213 218 221 226 227 229 228 225 223 220 227 225 217 187 167 144 161 188 173 270 78 131 139 201 192 230 196 230 228 238 238 238 249 247 241 250 254 259 260 272 266 281 288 296
351 135 153 156 181 204 213 217 220 223 213 216 208 196 193 195 190 189 169 179 163 176 237 186 148 189 180 207 236 181 232 217 225 248 250 258 258 269 280 259 261 277 269 270 258 264 258
287 279 359 88 146 149 177 161 169 175 184 180 180 182 192 195 200 199 199 156 128 215 246 178 184 179 199 189 215 228 196 191 200 219 241 246 250 255 255 256 249 265 247 243 238 221 246
20 197 252 323 15 15 122 163 201 192 193 200 199 199 207 215 215 201 181 65 214 237 252 4 44 179 216 219 205 205 231 213 217 238 273 264 248 223 226 234 234 234 229 237 233 245 261
108 95 161 334 339 346 17 49 204 220 231 211 207 208 208 206 201 189 161 191 212 236 298 141 290 257 244 226 269 217 230 238 238 208 236 281 245 85 350 235 213 235 251 242 264 279 299
151 164 182 162 178 169 201 213 222 244 222 216 210 202 203 206 202 185 203 223 226 255 308 283 238 282 255 247 234 232 236 17 252 262 252 278 284 282 110 19 282 256 270 279 80 227 240
176 172 172 184 226 206 209 188 201 210 221 227 201 169 196 191 188 197 204 222 225 264 306 260 252 249 260 254 276 245 254 17 303 317 306 288 268 270 268 203 255 235 240 251 254 180 257
177 181 202 200 207 198 216 224 229 235 226 204 167 145 177 184 186 246 219 218 255 253 211 231 263 280 278 280 277 259 243 46 319 330 281 91 316 280 270 259 334 311 298 270 244 241 244
208 203 199 212 220 218 216 210 213 197 242 274 186 100 175 175 198 227 237 231 254 247 252 207 235 241 252 255 246 239 255 132 167 241 329 32 289 282 273 280 263 343 350 358 331 297 246
194 214 223 229 221 215 216 219 207 197 192 202 111 131 279 181 126 308 235 243 231 247 262 268 269 265 256 249 240 246 250 220 206 217 170 227 212 219 248 222 131 186 306 5 66 326 323
220 222 216 216 222 226 228 227 212 202 202 206 232 199 208 207 182 239 308 335 80 322 360 281 307 242 240 239 249 253 247 244 191 195 184 227 237 237 246 256 198 209 222 236 239 235 220
246 243 235 230 224 217 215 219 221 215 197 211 220 218 179 242 231 181 79 297 2 87 22 356 25 358 359 295 242 271 299 274 224 207 214 218 237 249 255 252 220 223 234 235 236 233 226
239 248 250 242 232 222 218 215 208 202 198 216 242 260 306 318 219 186 204 234 260 318 231 220 312 328 343 25 342 319 287 262 246 265 237 232 244 234 241 245 259 243 244 249 241 239 237
238 245 247 249 242 232 220 217 208 197 192 211 236 250 224 263 231 233 232 225 237 252 251 275 276 291 321 323 312 306 283 267 257 252 248 246 226 234 247 245 244 244 242 234 240 246 255
238 239 241 246 246 238 230 223 214 205 195 186 231 240 300 268 278 273 254 198 208 218 206 248 261 272 338 324 333 308 254 232 242 241 242 230 244 238 234 235 249 273 234 238 231 246 255
244 239 238 238 237 240 232 227 221 214 206 204 225 218 234 264 250 258 273 282 276 256 216 235 248 243 270 273 232 248 245 300 235 219 223 235 232 241 216 234 242 242 242 250 257 210 252
244 240 236 233 232 233 237 228 223 219 212 205 225 218 240 245 267 283 276 271 249 256 259 271 272 170 186 226 243 251 255 270 266 275 246 214 229 234 239 245 248 251 242 209 210 241 261
248 244 235 230 228 220 217 216 218 218 214 208 225 225 215 244 260 279 270 272 266 265 266 274 303 249 165 218 237 242 246 253 257 252 260 260 236 227 227 237 243 238 253 186 214 258 257
254 244 231 227 220 217 218 217 215 212 215 215 229 237 227 244 258 280 272 261 263 267 279 277 264 252 214 241 234 266 260 269 268 264 255 249 246 237 235 236 254 254 238 253 217 203 212